星链-5886 (STARLINK-5886 )

导读 | 星芒AI

STARLINK-5886 是 SpaceX Starlink 低轨卫星互联网项目中的第 5886 颗卫星。该卫星属于 Starlink 群体部署计划的一部分,旨在为全球提供高速、低延迟的宽带互联网服务。它运行在近地轨道,采用先进推进系统和激光通信技术,以提高网络效率和稳定性。作为 Starlink 卫星群的重要成员,STARLINK-5886 有助于扩大覆盖范围,特别是在偏远和网络基础设施薄弱地区。

基本信息
目录编号:
56350
目录名称:
STARLINK-5886
国际标识:
2023-058AK
轨道中心:
EARTH
卫星名称:
星链-5886
卫星全名:
星链-5886 (STARLINK-5886 )
卫星状态:
在轨 (已飞行922 天)
发射日期:
2023-04-27 UTC
国别 :
美国 (US)
星等 :
--
轨道信息
数据来源 国际轨道数据
星历时间: 2025-11-04T01:08:33+0800
14小时前
查看轨道信息
半长轴: 6927.668km
偏心率: 0.0001987
轨道倾角: 97.602°
近地点辐角 87.205°
升交点赤经 307.091°
平近点角 272.941°
近地点: 548.156km
远地点: 550.91km
周期: 95.640分钟
每日圈数: 15.056437
详细信息
固有亮度:
5
最大亮度:
2.5
卫星平台:
Starlink v1.5
覆盖范围:
全球
运营商:
太空探索技术公司
运营商所在国:
美国
制造商(研发单位):
太空探索技术公司
制造商所在国:
美国
使用方式:
暂无
卫星简介
星链(Starlink)计划是由太空探索技术公司(SpaceX)提出的一个巨型低轨卫星互联网星座项目,计划在2019年至2024年间在太空搭建由约1.2万颗卫星组成的“星链”网络,其中1584颗将部署在地球上空550千米处的近地轨道,并从2020年开始工作。该卫星仍在工作。
2D轨道图
3D轨道图
轨道高度分析图
轨道倾角分析图
轨道综合分析图
查看轨道综合分析图